Location: ?????????
(38.5999°N, 22.7695°E)
Time: 14:34:55
(UTC+00:00)

Cosmos 2154 Rocket - Pass Details

Date: 23 May 2024
Orbit: 966 x 996 km, 82.9° (Epoch: 12 June)

Event Time Altitude Azimuth Distance (km) Brightness Sun altitude
Exits shadow 01:32:22 14° 183° (S) 2,432 5.7 -16.4°
Maximum altitude 01:37:50 85° 96° (E) 975 4.0 -15.6°
Drops below altitude 10° 01:44:03 10° 8° (N) 2,714 7.1 -14.7°
Sets 01:46:34 0° 8° (N) 3,667 7.9 -14.4°
